sat.trackr.live / text

‹ back to catalog

STARLINK-35430

NORAD 66020 · 2025-232R

PAYLOAD ACTIVE UNKNOWN

§ Identity

Operator
Country
US
Launch date
2025-10-16
Launch site
AFETR
Launch vehicle
Mass (kg)
RCS (m²)

Purposes: comms

External: N2YO · Heavens-Above · Gunter

§ Orbital elements

Epoch: 2026-09-20T21:46:39.041184Z

Period
93.85 min
Inclination
53.1580°
Eccentricity
0.0001200
Mean motion
15.34420188 rev/d
Perigee alt
461.8 km
Apogee alt
463.5 km
Semi-major
6,840.8 km
B*
6.0505e-4
RAAN
275.7708°
Arg perigee
90.8984°
Mean anomaly
269.2156°
Rev number
5,332

§ Raw data

STARLINK-354301 66020U 25232R   26263.90739631  .00020135  00000+0  60505-3 0  99942 66020  53.1580 275.7708 0001200  90.8984 269.2156 15.34420188 53325

JSON: /api/v1/satellites/66020 · /tle

For live sub-satellite position, see the globe view (requires WebGL).

§ Visibility from observer

Set your observer location to see the next 7 days of passes ≥ 10°. The values pass through the URL so the page stays shareable.

No JS? Fill the form by hand. The geolocation button needs JavaScript.